This is the latest recevied weather packets stored in our database for station/object NR0A-4. If no packets are shown the sender has not sent any weather packets the latest 1 day(s).
| Time | Temp. | Humidity | Pressure | Rain* | Wind** | Luminosity | Snow |
|---|---|---|---|---|---|---|---|
| 1778003704 | 12.22° C | 40% | 1014.1 hPa | 0 mm | 2.68 m/s, 261° | 998 W/m² | - |
| 1778003405 | 12.22° C | 41% | 1014 hPa | 0 mm | 2.24 m/s, 269° | 1063 W/m² | - |
| 1778003104 | 11.67° C | 44% | 1014.1 hPa | 0 mm | 1.34 m/s, 266° | 1037 W/m² | - |
| 1778002804 | 11.67° C | 45% | 1014.2 hPa | 0 mm | 1.34 m/s, 254° | 707 W/m² | - |
| 1778002505 | 11.67° C | 41% | 1014.1 hPa | 0 mm | 1.34 m/s, 269° | 693 W/m² | - |
| 1778002205 | 11.67° C | 41% | 1014.2 hPa | 0 mm | 1.79 m/s, 342° | 777 W/m² | - |
| 1778001904 | 11.67° C | 43% | 1014.2 hPa | 0 mm | 1.79 m/s, 253° | 448 W/m² | - |
| 1778001604 | 11.11° C | 43% | 1014.3 hPa | 0 mm | 2.24 m/s, 288° | 958 W/m² | - |
| 1778001304 | 11.11° C | 45% | 1014.2 hPa | 0 mm | 0.89 m/s, 254° | 680 W/m² | - |
| 1778001005 | 11.11° C | 46% | 1014.3 hPa | 0 mm | 2.24 m/s, 282° | 497 W/m² | - |
| 1778000705 | 11.11° C | 47% | 1014.2 hPa | 0 mm | 0.89 m/s, 269° | 612 W/m² | - |
| 1778000404 | 10.56° C | 45% | 1014.2 hPa | 0 mm | 0.89 m/s, 290° | 585 W/m² | - |
| 1778000105 | 10.56° C | 45% | 1014.2 hPa | 0 mm | 1.34 m/s, 311° | 448 W/m² | - |
| 1777999805 | 10.56° C | 45% | 1014.3 hPa | 0 mm | 1.79 m/s, 285° | 452 W/m² | - |
| 1777999504 | 10.56° C | 45% | 1014.3 hPa | 0 mm | 0.89 m/s, 299° | 410 W/m² | - |
| 1777999205 | 10.56° C | 45% | 1014.4 hPa | 0 mm | 1.34 m/s, 314° | 448 W/m² | - |
| 1777998905 | 10.56° C | 45% | 1014.4 hPa | 0 mm | 1.34 m/s, 284° | 448 W/m² | - |
| 1777998604 | 10.56° C | 44% | 1014.3 hPa | 0 mm | 0.89 m/s, 274° | 369 W/m² | - |
| 1777998305 | 10.56° C | 42% | 1014.3 hPa | 0 mm | 0.89 m/s, 291° | 360 W/m² | - |
| 1777998004 | 10.56° C | 44% | 1014.3 hPa | 0 mm | 1.34 m/s, 302° | 374 W/m² | - |
| 1777997705 | 10.56° C | 46% | 1014.3 hPa | 0 mm | 0.89 m/s, 261° | 396 W/m² | - |
| 1777997404 | 10° C | 46% | 1014.2 hPa | 0 mm | 1.34 m/s, 193° | 469 W/m² | - |
| 1777997104 | 10° C | 49% | 1014.2 hPa | 0 mm | 1.34 m/s, 256° | 693 W/m² | - |
| 1777996805 | 9.44° C | 46% | 1014.1 hPa | 0 mm | 0.89 m/s, 263° | 441 W/m² | - |
| 1777996504 | 8.89° C | 45% | 1014 hPa | 0 mm | 1.34 m/s, 278° | 327 W/m² | - |
* Rain latest hour (hover to see other rain measurements)
** Current wind speed in m/s (hover to see current wind gust speed)